METEOR 1-13

Satellite information

Favourite Embed

Satellite Type and Status

PAYLOADIN ORBIT

Key statistics

Satellite METEOR 1-13 at a glance.

Uptime

19301

Days in orbit

Revolutions

≈ 14.1

Per day

Orbit

LEO

Low Earth Orbit

Inclination

81.3

Latest

Satellite identification and parameters

Extended collection of information and parameters for METEOR 1-13.

Object identification

Identified? True

Debris? False

Object name: METEOR 1-13

International designator: 1972-085A

Object number (NORAD): 6256

Object ID (CCSDS): 6256

Country: COMMONWEALTH OF INDEPENDENT STATES (CIS)

Current information (Y/N): Y

RCS size: LARGE

Orbital parameters

Period: 102.171 minutes

Inclination: 81.2687 deg

SMA: 7239.551 km

Apoapsis: 878.573 km

Periapsis: 844.26 km

RAAN: 75.1979 deg

Eccentricy: 0.00236981

Argument of periapsis: 238.6604 deg

Mean anomaly: 121.2247 deg

Mean motion: 14.09403334 rev/day

Mean motion (dot): 0.00000146 rev/day2

B* drag term: 0.000076477815 1/REarth

Two-line elements (TLE)

Creation date: Aug. 30, 2025, 3:38 a.m.

Reference frame: TEME

Reference center: EARTH

Epoch: Aug. 29, 2025, 10:03 p.m. UTC

TLE line 0: 0 METEOR 1-13

TLE line 1: 1 06256U 72085A 25241.91910464 .00000146 00000-0 76478-4 0 9996

TLE line 2: 2 06256 81.2687 75.1979 0023698 238.6604 121.2247 14.09403334713841

Live tracking on map

Real-time ground track for satellite METEOR 1-13.

In-orbit conjunctions

A list of the most updated potential collisions computed for object METEOR 1-13.

Target Orbit TCA Probability of collision Miss distance Type
FENGYUN 1C DEB SSO 2025-07-26 19:48:04 0.0001452527 667.0 (m) DEBRIS
CZ-6A DEB LEO 2025-06-29 10:33:43 0.0001283302 401.0 (m) DEBRIS
CZ-6A DEB LEO 2025-04-07 06:07:16 0.000530129 125.0 (m) DEBRIS
CZ-6A DEB SSO 2025-03-25 08:52:35 0.0001187617 708.0 (m) DEBRIS
NOAA 16 DEB SSO 2025-03-25 01:57:07 0.0001048059 388.0 (m) DEBRIS

Associated space launch

The Meteor-1 series was the first series of Soviet meteorological satellites.

METEOR 1-13 was lifted into orbit during the mission ‘Vostok 8A92M | Meteor-1 13 (25L)’, on board a Vostok 8A92M space rocket.

The launch took place on Oct. 26, 1972, 10:05 p.m. from 43/4 (43R).

For more information about the launch, click the button.

Launch to space Vostok 8A92M | Meteor-1 13 (25L)
Vostok 8A92M | Meteor-1 13 (25L)

Agency: N/A

Status: Launch Successful

Launch date: Oct. 26, 1972, 10:05 p.m. UTC

Rocket: Vostok 8A92M

Launch pad: 43/4 (43R)

Location: Plesetsk Cosmodrome, Russian Federation

...

Latest news about this satellite

There are no fresh news available about this satellite. Check back as we update our databases every day.


Newsletter sign-up

Weekly statistics, charts and insights to help you stay on top of the space industry.